RYR2794 LIBD-LATI

Flight info

Callsign RYR2794
Flight time N/A
Altitude 28000
Route DOLON L612 KAPPO P92 DIRES
Aircraft B738/M-SDE2E3FGHIRWXY/LB1

Departure

Time 2026-04-22 17:49
Airport Bari Karol Wojtyła International Airport (LIBD)

Arrival

Time N/A
Airport Tirana International Airport Mother Teresa (LATI)
Time Latitude Longitude Altitude Speed Heading
2026-04-22 16:58 41.13666 16.76311 148 ft 0 kts 234°
2026-04-22 17:43 41.13658 16.76308 148 ft 3 kts 195°
2026-04-22 17:43 41.13626 16.76357 147 ft 10 kts 103°
2026-04-22 17:44 41.13639 16.76470 142 ft 16 kts 66°
2026-04-22 17:44 41.13722 16.76585 138 ft 18 kts 54°
2026-04-22 17:44 41.13771 16.76743 134 ft 19 kts 59°
2026-04-22 17:44 41.13822 16.76767 132 ft 8 kts 353°
2026-04-22 17:45 41.13884 16.76831 129 ft 17 kts 68°
2026-04-22 17:45 41.13934 16.77010 126 ft 23 kts 68°
2026-04-22 17:45 41.13991 16.77209 121 ft 17 kts 72°
2026-04-22 17:45 41.14005 16.77261 122 ft 0 kts 67°
2026-04-22 17:46 41.14019 16.77306 118 ft 14 kts 67°
2026-04-22 17:46 41.14107 16.77405 115 ft 16 kts 16°
2026-04-22 17:46 41.14113 16.77407 115 ft 0 kts 15°
2026-04-22 17:48 41.14121 16.77410 113 ft 4 kts 14°
2026-04-22 17:48 41.14219 16.77374 113 ft 4 kts 298°
2026-04-22 17:48 41.14215 16.77338 112 ft 4 kts 253°
2026-04-22 17:48 41.14214 16.77334 111 ft 0 kts 252°
2026-04-22 17:49 41.14212 16.77327 112 ft 8 kts 251°
2026-04-22 17:49 41.14103 16.76945 128 ft 89 kts 250°
2026-04-22 17:49 41.13783 16.75819 232 ft 163 kts 249°
2026-04-22 17:49 41.13370 16.74412 1301 ft 167 kts 251°
2026-04-22 17:50 41.12925 16.72938 2516 ft 168 kts 253°
2026-04-22 17:50 41.12481 16.71484 3626 ft 174 kts 254°
2026-04-22 17:50 41.12023 16.69795 4077 ft 211 kts 255°
2026-04-22 17:50 41.11526 16.67935 4741 ft 217 kts 254°
2026-04-22 17:51 41.11000 16.66036 5345 ft 222 kts 253°
2026-04-22 17:51 41.10456 16.64105 6065 ft 222 kts 253°
2026-04-22 17:51 41.09908 16.62172 6701 ft 226 kts 253°
2026-04-22 17:51 41.09352 16.60212 7378 ft 226 kts 253°
2026-04-22 17:52 41.09032 16.58910 7851 ft 224 kts 262°
2026-04-22 17:52 41.09200 16.56915 8458 ft 220 kts 300°
2026-04-22 17:52 41.10244 16.55454 9173 ft 223 kts 328°
2026-04-22 17:52 41.11713 16.54795 9995 ft 227 kts 353°
2026-04-22 17:53 41.13290 16.55123 10756 ft 235 kts 17°
2026-04-22 17:53 41.14800 16.56004 11487 ft 240 kts 19°
2026-04-22 17:53 41.16336 16.56932 12195 ft 244 kts 18°
2026-04-22 17:53 41.17905 16.57813 12941 ft 246 kts 15°
2026-04-22 17:54 41.19499 16.58683 13679 ft 249 kts 15°
2026-04-22 17:54 41.21112 16.59573 14365 ft 252 kts 14°
2026-04-22 17:54 41.22720 16.60545 15042 ft 260 kts 22°
2026-04-22 17:54 41.24082 16.62272 15585 ft 289 kts 51°
2026-04-22 17:55 41.24713 16.64962 15821 ft 326 kts 82°
2026-04-22 17:55 41.24694 16.68072 16109 ft 348 kts 88°
2026-04-22 17:55 41.24679 16.71378 16370 ft 365 kts 82°
2026-04-22 17:55 41.24929 16.74774 16781 ft 376 kts 77°
2026-04-22 17:56 41.25284 16.78280 17313 ft 386 kts 77°
2026-04-22 17:56 41.25529 16.81875 17912 ft 397 kts 84°
2026-04-22 17:56 41.25215 16.85553 18539 ft 408 kts 106°
2026-04-22 17:56 41.24190 16.89098 19037 ft 413 kts 112°
2026-04-22 17:57 41.23079 16.92619 19025 ft 413 kts 110°
2026-04-22 17:57 41.22165 16.96234 19043 ft 407 kts 103°
2026-04-22 17:57 41.21485 16.99836 19045 ft 404 kts 101°
2026-04-22 17:57 41.20848 17.03495 19059 ft 405 kts 101°
2026-04-22 17:58 41.20176 17.07139 19062 ft 407 kts 102°
2026-04-22 17:58 41.19454 17.10790 19055 ft 408 kts 103°
2026-04-22 17:58 41.18694 17.14414 19052 ft 409 kts 107°
2026-04-22 17:58 41.17561 17.17884 19024 ft 409 kts 127°
2026-04-22 17:59 41.15672 17.20712 19155 ft 404 kts 141°
2026-04-22 17:59 41.13608 17.23228 19544 ft 410 kts 143°
2026-04-22 17:59 41.11516 17.25805 20262 ft 410 kts 140°
2026-04-22 17:59 41.09544 17.28559 21023 ft 411 kts 136°
2026-04-22 18:00 41.08281 17.30473 21508 ft 411 kts 135°
2026-04-22 18:00 41.05794 17.34340 22452 ft 412 kts 135°
2026-04-22 18:00 41.03917 17.37225 23080 ft 414 kts 135°
2026-04-22 18:00 41.02037 17.40063 23692 ft 415 kts 136°
2026-04-22 18:01 41.00122 17.42912 24257 ft 415 kts 136°
2026-04-22 18:01 40.98200 17.45747 24823 ft 413 kts 137°
2026-04-22 18:01 40.96267 17.48585 25059 ft 418 kts 137°
2026-04-22 18:01 40.94319 17.51442 25035 ft 417 kts 137°
2026-04-22 18:02 40.92382 17.54289 25043 ft 413 kts 137°
2026-04-22 18:02 40.90471 17.57096 25036 ft 411 kts 137°
2026-04-22 18:02 40.88560 17.59898 25040 ft 408 kts 137°
2026-04-22 18:02 40.86665 17.62691 25038 ft 406 kts 137°
2026-04-22 18:03 40.84793 17.65459 25029 ft 404 kts 137°
2026-04-22 18:03 40.82918 17.68233 25029 ft 404 kts 137°
2026-04-22 18:03 40.81051 17.70991 25033 ft 403 kts 137°
2026-04-22 18:03 40.79061 17.73928 25040 ft 404 kts 137°
2026-04-22 18:04 40.77274 17.76561 25046 ft 405 kts 137°
2026-04-22 18:04 40.75388 17.79337 25040 ft 407 kts 137°
2026-04-22 18:04 40.73489 17.82130 25032 ft 409 kts 137°
2026-04-22 18:04 40.71586 17.84927 25027 ft 410 kts 137°
2026-04-22 18:05 40.69680 17.87727 25026 ft 411 kts 137°
2026-04-22 18:05 40.67772 17.90529 25025 ft 411 kts 137°
2026-04-22 18:05 40.65855 17.93340 25020 ft 412 kts 137°
2026-04-22 18:05 40.63949 17.96162 25016 ft 412 kts 133°
2026-04-22 18:06 40.62542 17.99472 25008 ft 414 kts 104°
2026-04-22 18:06 40.62096 18.03171 25030 ft 405 kts 84°
2026-04-22 18:06 40.62461 18.06754 25027 ft 389 kts 64°
2026-04-22 18:06 40.63292 18.10121 25036 ft 385 kts 60°
2026-04-22 18:07 40.64196 18.13460 25030 ft 387 kts 60°
2026-04-22 18:07 40.65048 18.16847 25032 ft 391 kts 63°
2026-04-22 18:07 40.65812 18.20316 24992 ft 395 kts 65°
2026-04-22 18:07 40.66553 18.23829 24744 ft 399 kts 65°
2026-04-22 18:08 40.67298 18.27343 24513 ft 398 kts 65°
2026-04-22 18:08 40.68050 18.30828 24279 ft 395 kts 64°
2026-04-22 18:08 40.68814 18.34303 24044 ft 393 kts 64°
2026-04-22 18:08 40.69577 18.37719 23821 ft 392 kts 64°
2026-04-22 18:09 40.70357 18.41194 23590 ft 391 kts 64°
2026-04-22 18:09 40.71130 18.44628 23318 ft 391 kts 64°
2026-04-22 18:09 40.71892 18.48021 23058 ft 390 kts 64°
2026-04-22 18:09 40.72691 18.51572 22815 ft 399 kts 64°
2026-04-22 18:10 40.73487 18.55114 22563 ft 407 kts 65°
2026-04-22 18:10 40.74290 18.58716 22303 ft 409 kts 65°
2026-04-22 18:10 40.75142 18.62555 22013 ft 405 kts 64°
2026-04-22 18:10 40.76059 18.66058 21786 ft 394 kts 58°
2026-04-22 18:11 40.77185 18.69295 21505 ft 383 kts 52°
2026-04-22 18:11 40.78518 18.72307 21180 ft 374 kts 46°
2026-04-22 18:11 40.79502 18.74239 20921 ft 372 kts 44°
2026-04-22 18:11 40.81008 18.77133 20530 ft 371 kts 45°
2026-04-22 18:12 40.82505 18.80136 20183 ft 370 kts 47°
2026-04-22 18:12 40.83961 18.83255 19839 ft 370 kts 50°